Location: Chamberlain Observatory
(39.0028°N, 90.1630°W)
Time: 04:53:10
(UTC-06:00)

Daily predictions for brighter satellites

Satellite Brightness Start Highest point End
(mag) Time Altitude Azimuth Time Altitude Azimuth Time Altitude Azimuth
Cosmos 2333 Rocket 4.4 03:50:14 19° ESE 03:50:14 19° ESE 03:51:57 10° SE
Cosmos 2219 Rocket 4.4 04:11:11 16° SSE 04:11:11 16° SSE 04:12:13 10° SSE
CZ-3 R/B 4.4 04:30:34 35° WSW 04:32:56 35° SW 04:42:52 10° SSE
Cosmos 2237 Rocket 2.6 04:36:10 56° SE 04:36:10 56° SE 04:40:38 10° SSE
USA 229 DEB 4.3 04:33:35 38° N 04:36:06 54° NE 04:43:09 10° SE
USA 229 4.4 04:33:38 37° N 04:36:12 53° NE 04:43:14 10° SE
SL-16 R/B 3.5 04:35:44 26° NNE 04:38:06 37° ENE 04:43:18 10° SE
Tsikada Rocket 4.3 04:34:19 10° N 04:40:40 65° E 04:46:55 10° SSE
Meteor 2-17 Rocket 4.3 04:36:45 10° S 04:42:47 86° E 04:48:51 10° N
Cosmos 2297 Rocket 2.3 04:46:57 67° NNE 04:46:57 67° NNE 04:51:51 10° NNE
Aureole 2 Rocket 3.6 04:57:16 52° ENE 04:57:18 52° ENE 05:01:23 10° SE
Cosmos 2227 Rocket 3.0 05:00:40 35° N 05:00:40 35° N 05:04:08 10° NNE
Cosmos 540 Rocket 3.3 04:58:35 86° NNE 04:58:40 87° ENE 05:03:47 10° SSE
OAO 2 Rocket 3.6 05:04:02 53° S 05:04:09 54° S 05:08:57 10° E
ISS -1.0 05:06:00 21° NE 05:06:00 21° NE 05:07:50 10° E
Cosmos 1725 Rocket 3.8 05:00:05 10° SSW 05:06:17 69° W 05:12:34 10° N
Cosmos 1864 Rocket 4.3 05:00:43 10° SSW 05:06:46 69° W 05:12:56 10° N
SKYMED 2 3.9 05:04:00 10° SSE 05:08:17 65° ENE 05:09:51 37° N
Meteor 1-21 Rocket 4.1 05:10:32 59° W 05:10:32 59° W 05:15:53 10° S
Meteor 1-4 Rocket 3.3 05:07:51 10° S 05:11:27 52° E 05:15:08 10° NNE
CZ-4 R/B 4.3 05:18:01 10° NE 05:20:57 19° E 05:23:54 10° SE
Cosmos 1980 4.4 05:22:40 34° SW 05:22:40 34° SW 05:26:51 10° S
USA 234 4.2 05:16:54 10° E 05:22:56 41° NNE 05:27:25 18° NNW
ERBS 4.5 05:23:54 18° NNE 05:24:42 20° NE 05:27:17 10° E
Cosmos 2082 4.3 05:27:38 35° NW 05:27:38 35° NW 05:32:11 10° N
Cosmos 2333 Rocket 3.5 05:32:19 22° SW 05:32:19 22° SW 05:35:07 10° SSW
Ariane Rocket 3.1 05:29:57 10° NNE 05:35:05 78° ESE 05:40:11 10° S
Cosmos 2221 3.8 05:31:16 10° SSE 05:35:21 42° E 05:39:27 10° NNE
TELKOM 3 3.8 05:36:34 56° SSE 05:36:36 56° SE 05:38:53 10° ENE
Cosmos 1461 4.4 05:40:27 20° SW 05:40:27 20° SW 05:42:26 10° SSW
DMSP B5D1-3 4.5 05:42:19 10° S 05:47:24 65° WSW 05:52:30 10° NNW
Cosmos 1743 Rocket 4.0 05:46:44 32° WNW 05:47:49 38° W 05:51:52 10° SSW
Cosmos 1328 3.7 05:45:28 18° NNW 05:48:20 63° W 05:52:16 10° S
Cosmos 2058 3.0 05:49:46 10° N 05:53:54 79° E 05:58:02 10° S
Cosmos 1842 Rocket 4.0 05:52:10 10° SSW 05:56:10 37° WNW 06:00:14 10° N
COSMO-SKYMED 1 3.2 05:52:23 10° SSW 05:56:20 35° W 05:58:24 22° NW
Cosmos 2233 Rocket 4.3 05:51:02 10° SSW 05:56:56 44° WNW 06:02:55 10° N
PAYLOAD A 4.0 05:57:30 10° NNE 06:02:35 85° ESE 06:07:27 10° SSW
CSL-04 DEB 4.5 05:58:41 10° N 06:03:04 75° WNW 06:07:23 10° SSW
CZ-2C R/B 2.9 06:00:14 10° NNE 06:04:47 58° E 06:09:16 10° S
Cosmos 1805 Rocket 4.0 06:03:07 10° N 06:07:32 65° E 06:11:52 10° SSE
Cosmos 968 Rocket 3.9 06:02:42 10° SW 06:07:37 40° WNW 06:12:36 10° N
Cosmos 2227 4.1 06:02:56 10° SSW 06:08:33 80° WNW 06:14:12 10° NNE
CSL-04 Rocket 3.6 06:05:55 10° N 06:11:09 59° WNW 06:16:18 10° SSW
Helios 1B rocket 3.9 06:07:37 10° SE 06:11:26 38° ENE 06:15:16 10° N
Cosmos 2151 3.2 06:07:27 10° NNW 06:11:29 45° W 06:15:31 10° SSW
Genesis I 3.8 06:08:38 10° NNW 06:12:30 54° NE 06:16:20 10° SE
Cosmos 2034 Rocket 4.1 06:08:06 10° S 06:14:15 84° E 06:20:31 10° N
SMAP 3.6 06:09:47 10° NNE 06:14:26 64° ESE 06:19:02 10° S
Cosmos 773 Rocket 4.0 06:12:22 10° NNW 06:17:40 81° WSW 06:22:57 10° SSE
Cosmos 2237 Rocket 3.9 06:18:04 12° W 06:18:12 12° W 06:20:27 10° WSW
Cosmos 1356 Rocket 3.6 06:15:05 10° N 06:19:10 75° E 06:23:19 10° SSE
Cosmos 1703 3.2 06:16:28 10° N 06:20:24 88° W 06:24:19 10° S
GPS 2-05 Rocket1 3.8 06:17:46 11° WSW 06:20:47 40° S 06:23:58 10° E
SL-16 R/B 3.0 06:17:40 12° NW 06:22:03 30° WSW 06:26:52 10° SSW
Tiangong 2 3.8 06:22:12 10° SSW 06:24:32 19° SE 06:26:52 10° E
Nadezhda 4 Rocket 4.4 06:19:45 10° N 06:26:06 68° E 06:32:20 10° SSE
Cosmos 1340 Rocket 3.3 06:26:41 10° NNW 06:30:20 37° W 06:33:59 10° SSW
Cosmos 2297 Rocket 3.8 06:28:51 12° WNW 06:31:00 14° NW 06:33:56 10° NNW
SPOT 3 Rocket 3.8 06:27:16 10° NNE 06:32:30 79° ESE 06:37:43 10° S
Cosmos 2344 4.2 06:26:28 10° SSW 06:34:02 66° ESE 06:42:18 10° NE
Sich 1 3.1 06:30:31 10° N 06:34:54 85° E 06:39:13 10° S
Cosmos 1633 Rocket 3.3 06:31:20 10° N 06:35:43 75° E 06:40:01 10° SSE
SJ-12 4.0 06:32:00 10° N 06:35:59 52° WNW 06:39:55 10° SSW
Cosmos 1777 Rocket 4.4 06:33:03 10° SW 06:37:58 41° WNW 06:42:53 10° N
Cosmos 1271 Rocket 3.9 06:35:18 10° SW 06:38:20 22° WNW 06:41:22 10° NNW
Cosmos 1328 Rocket 4.3 06:34:23 10° S 06:38:36 57° E 06:42:53 10° NNE
DELTA 2 R/B (1) 4.1 06:33:18 10° WSW 06:38:47 62° SSE 06:44:17 10° E
Cosmos 1184 Rocket 2.7 06:36:55 10° NNW 06:40:14 77° W 06:43:32 10° S
NOSS 3-1 (A) 4.2 06:33:15 10° NW 06:40:59 80° WSW 06:49:25 10° SSE
ISS -2.7 06:38:40 10° WNW 06:41:44 41° SW 06:44:48 10° SSE
IDEFIX/ARIANE 42P 2.7 06:40:18 10° N 06:45:28 56° WNW 06:50:36 10° SSW
Cosmos 1464 Rocket 4.4 06:40:04 10° SW 06:45:58 40° WNW 06:51:52 10° N
OAO 2 Rocket 4.1 06:43:58 10° W 06:48:37 43° SSW 06:53:17 10° ESE
Cosmos 1484 Rocket 3.0 06:45:11 10° NNE 06:49:14 81° ESE 06:53:12 10° S
ATLAS 2AS CENTAUR R/B 4.0 06:42:10 10° NNW 06:49:48 43° NE 06:56:58 10° ESE
CZ-3 Stage 3 4.2 06:45:45 10° WSW 06:51:11 42° S 07:15:29 10° ESE
